Terminal Aerodrome Forecast
Issued by NWS Salt Lake City, UT

Home | Current Version | Previous Version | Text Only | Print | Product List | Glossary On
Versions: 1 2 3 4 5 6 7 8 9 10 11 12 13 14 15 16 17 18 19 20 21 22 23 24 25 26 27 28 29 30 31 32 33 34 35 36 37 38 39 40 41 42 43 44 45 46 47 48 49 50
000
FTUS45 KSLC 030843 AAB
TAFSLC
TAF AMD
KSLC 030843Z 0309/0412 16018G26KT P6SM -SHRA SCT070 BKN090
     FM031000 17011G18KT P6SM -SHRA SCT050 BKN070
     FM031600 17009KT P6SM VCSH SCT080 BKN120
     FM032000 27011KT P6SM VCSH SCT090 SCT150
     FM040400 15007KT P6SM SCT150=

USA.gov is the U.S. government's official web portal to all federal, state and local government web resources and services.